This is the latest recevied weather packets stored in our database for station/object AE5TC. If no packets are shown the sender has not sent any weather packets the latest 10 day(s).
| Time | Temp. | Humidity | Pressure | Rain* | Wind** | Luminosity | Snow |
|---|---|---|---|---|---|---|---|
| 1777642850 | 23.89° C | 87% | 1011.6 hPa | 0 mm | - | 244 W/m² | - |
| 1777642543 | 23.89° C | 87% | 1011.6 hPa | 0 mm | - | 241 W/m² | - |
| 1777642238 | 23.33° C | 88% | 1011.4 hPa | 0 mm | - | 266 W/m² | - |
| 1777641936 | 23.33° C | 90% | 1011.2 hPa | 0 mm | - | 236 W/m² | - |
| 1777641631 | 22.78° C | 91% | 1011.1 hPa | 0 mm | - | 238 W/m² | - |
| 1777641326 | 22.78° C | 91% | 1011.1 hPa | 0 mm | - | 225 W/m² | - |
| 1777641021 | 22.22° C | 92% | 1011 hPa | 0 mm | - | 188 W/m² | - |
| 1777640718 | 22.22° C | 94% | 1011 hPa | 0 mm | - | 161 W/m² | - |
| 1777640415 | 21.67° C | 94% | 1011.3 hPa | 0 mm | - | 148 W/m² | - |
| 1777640112 | 21.67° C | 94% | 1011.9 hPa | 0 mm | - | 108 W/m² | - |
| 1777639809 | 21.67° C | 93% | 1011.8 hPa | 0 mm | - | 87 W/m² | - |
| 1777639506 | 21.67° C | 93% | 1012.1 hPa | 0 mm | - | 94 W/m² | - |
| 1777639202 | 22.22° C | 92% | 1011.8 hPa | 0 mm | - | 134 W/m² | - |
| 1777638899 | 21.67° C | 94% | 1011.9 hPa | 0 mm | - | 218 W/m² | - |
| 1777638595 | 21.11° C | 96% | 1011.8 hPa | 0 mm | - | 143 W/m² | - |
| 1777638292 | 21.11° C | 97% | 1011.6 hPa | 0 mm | - | 87 W/m² | - |
| 1777637988 | 20.56° C | 99% | 1011.6 hPa | 0 mm | - | 82 W/m² | - |
| 1777637685 | 20.56° C | 99% | 1011.7 hPa | 0 mm | - | 83 W/m² | - |
| 1777637382 | 20° C | 99% | 1011.7 hPa | 0 mm | - | 65 W/m² | - |
| 1777637078 | 20° C | 99% | 1011.8 hPa | 0 mm | - | 46 W/m² | - |
| 1777636774 | 20° C | 99% | 1011.4 hPa | 0 mm | - | 39 W/m² | - |
| 1777636471 | 20° C | 99% | 1011.4 hPa | 0 mm | - | 38 W/m² | - |
| 1777636167 | 20° C | 99% | 1011.2 hPa | 0 mm | - | 37 W/m² | - |
| 1777635861 | 20° C | 99% | 1011.1 hPa | 0 mm | - | 26 W/m² | - |
| 1777635558 | 20° C | 99% | 1010.8 hPa | 0 mm | - | 20 W/m² | - |
* Rain latest hour (hover to see other rain measurements)
** Current wind speed in m/s (hover to see current wind gust speed)